Regional Weather Roundup
Issued by NWS

Home | Current Version | Previous Version | Text Only | Print | Product List | Glossary Off
Versions: 1 2 3 4 5 6 7 8 9 10 11 12 13 14 15 16 17 18 19 20 21 22 23 24 25 26 27 28 29 30 31 32 33 34 35 36 37 38 39 40 41 42 43 44 45 46 47 48 49 50

000
ASUS43 KBIS 111302
RWRND

NORTH DAKOTA REGIONAL WEATHER ROUNDUP
NATIONAL WEATHER SERVICE BISMARCK ND
700 AM CST MON DEC 11 2017

NOTE: "FAIR" INDICATES FEW OR NO CLOUDS BELOW 12,000 FEET WITH NO
SIGNIFICANT WEATHER AND/OR OBSTRUCTIONS TO VISIBILITY.


NDZ001>003-009>011-017-111400-
NORTHWEST NORTH DAKOTA

CITY           SKY/WX    TMP DP  RH WIND       PRES   REMARKS
WILLISTON      CLOUDY    37  30  75 NW18G26   30.21R
MINOT          CLOUDY    37  30  75 NW18      30.08R
MINOT AFB      CLOUDY    36  29  76 NW23      30.06R
$$

NDZ018>021-031>035-040>046-111400-
SOUTHWEST NORTH DAKOTA

CITY           SKY/WX    TMP DP  RH WIND       PRES   REMARKS
BISMARCK       CLOUDY    42  32  67 NW26G33   30.04R
DICKINSON      CLOUDY    35  29  78 NW25G36   30.13R
GARRISON         N/A     36  30  79 N30G36    30.07R
HETTINGER ARPT CLOUDY    37  27  67 NW33G47   30.13R
$$

NDZ004>008-012>016-024-026-027-054-111400-
NORTHEAST NORTH DAKOTA

CITY           SKY/WX    TMP DP  RH WIND       PRES   REMARKS
GRAND FORKS    CLOUDY    28  25  88 N31G48    29.90R BLWGSNOWWCI  12
GRND FRKS AFB  CLOUDY    29  24  84 N26G40    29.91R WCI  14
DEVILS LAKE    CLOUDY    31  28  89 N28G36    29.97R WCI  17
$$

NDZ022-023-025-028>030-036>039-047>053-111400-
SOUTHEAST NORTH DAKOTA

CITY           SKY/WX    TMP DP  RH WIND       PRES   REMARKS
FARGO          CLOUDY    36  32  85 N38G47    29.81R
JAMESTOWN      CLOUDY    37  33  85 N24G33    29.91R
$$




USA.gov is the U.S. government's official web portal to all federal, state and local government web resources and services.